This demonstration page uses our WeatherBlox Daily Observations layout. Learn more.

Left ArrowRight Arrow

Hourly Observations for November 30, 2022

Temp ( °F °C ) Dew Point ( °F °C ) Humidity (%) Winds ( mph kmh ) Pressure ( in mb ) Visibility ( mi km ) Precip ( " mm )
12:55 am 00:55 Clear 22 -5.4 8 -13.3 54 54 NW 16 26 30.20 1023 10 16 0.00 0.00
1:55 am 01:55 Clear 21 -6.2 8 -13.6 56 56 W 14 22 30.22 1023 10 16 0.00 0.00
2:55 am 02:55 Clear 20 -6.7 7 -13.8 57 57 WNW 12 19 30.24 1024 10 16 0.00 0.00
3:55 am 03:55 Clear 19 -7.4 6 -14.3 58 58 W 12 19 30.27 1025 10 16 0.00 0.00
4:55 am 04:55 Clear 19 -7.5 6 -14.6 57 57 W 10 17 30.29 1026 10 16 0.00 0.00
5:55 am 05:55 Clear 17 -8.6 6 -14.6 62 62 W 12 19 30.32 1027 10 16 0.00 0.00
6:55 am 06:55 Clear 16 -8.9 5 -14.9 62 62 W 9 15 30.36 1028 10 16 0.00 0.00
7:55 am 07:55 Sunny 15 -9.2 5 -15 63 63 WNW 7 11 30.39 1029 10 16 0.00 0.00
8:55 am 08:55 Sunny 19 -7.5 5 -14.8 56 56 WNW 14 22 30.41 1030 10 16 0.00 0.00
9:55 am 09:55 Sunny 21 -6.2 7 -14 54 54 WNW 12 19 30.43 1031 10 16 0.00 0.00
10:55 am 10:55 Sunny 24 -4.2 7 -13.7 47 47 WNW 14 22 30.45 1031 10 16 0.00 0.00
11:56 am 11:56 Sunny 26 -3.6 7 -13.8 45 45 WNW 14 22 30.44 1031 10 16 0.00 0.00
12:57 pm 12:57 Sunny 27 -2.8 8 -13.1 45 45 WNW 17 28 30.44 1031 10 16 0.00 0.00
1:07 pm 13:07 Sunny 28 -2 9 -13 43 43 WNW 14 22 30.44 1031 10 16 0.00 0.00
1:55 pm 13:55 Sunny 28 -2.1 9 -12.7 44 44 WNW 13 20 30.44 1031 10 16 0.00 0.00
2:55 pm 14:55 Sunny 29 -1.9 9 -12.8 43 43 W 18 30 30.44 1031 10 16 0.00 0.00
3:55 pm 15:55 Sunny 28 -2.1 10 -12.5 45 45 W 8 13 30.44 1031 10 16 0.00 0.00
4:55 pm 16:55 Sunny 26 -3.2 10 -12.2 50 50 W 3 6 30.44 1031 10 16 0.00 0.00
5:55 pm 17:55 Clear 25 -3.8 10 -12.5 51 51 SW 3 6 30.45 1031 10 16 0.00 0.00
6:55 pm 18:55 Clear 23 -5 10 -12.2 57 57 Calm 30.46 1031 10 16 0.00 0.00
7:55 pm 19:55 Clear 20 -6.9 9 -12.6 64 64 E 3 6 30.46 1032 10 16 0.00 0.00
8:55 pm 20:55 Clear 20 -6.9 10 -12 67 67 Calm 30.46 1031 10 16 0.00 0.00
9:55 pm 21:55 Clear 18 -7.9 11 -11.9 73 73 Calm 30.46 1031 10 16 0.00 0.00
10:55 pm 22:55 Clear 17 -8.1 10 -12.4 71 71 Calm 30.47 1032 10 16 0.00 0.00
11:55 pm 23:55 Clear 17 -8.1 10 -12.4 71 71 SE 3 6 30.45 1031 10 16 0.00 0.00

Powered by AerisWeather